| time (UTC) | temp C | wind direction | speed KPH | gust KPH | rain 1hr cm | rain 24hr cm | rain mn cm | humidity % | barometer mb |
| 20260507104600 | 22 | 44 | 8.0 | 22.5 | 0.00 | 0.00 | 0.00 | 63 | 1015.7 |
| 20260507103041 | 21 | 229 | 9.7 | 17.7 | 0.00 | 0.00 | 0.00 | 65 | 1015.8 |
| 20260507101541 | 21 | 252 | 6.4 | 17.7 | 0.00 | 0.00 | 0.00 | 65 | 1015.8 |
| 20260507100024 | 21 | 345 | 6.4 | 19.3 | 0.00 | 0.00 | 0.00 | 65 | 1016.0 |
| 20260507094519 | 21 | 229 | 8.0 | 14.5 | 0.00 | 0.00 | 0.00 | 66 | 1016.0 |
| 20260507093002 | 21 | 304 | 6.4 | 16.1 | 0.00 | 0.00 | 0.00 | 64 | 1016.3 |
| 20260507091559 | 21 | 156 | 4.8 | 16.1 | 0.00 | 0.00 | 0.00 | 65 | 1016.3 |
| 20260507090040 | 20 | 280 | 6.4 | 16.1 | 0.00 | 0.00 | 0.00 | 63 | 1016.4 |
| 20260507084539 | 21 | 67 | 4.8 | 12.9 | 0.00 | 0.00 | 0.00 | 64 | 1016.6 |
| 20260507083019 | 20 | 181 | 4.8 | 16.1 | 0.00 | 0.00 | 0.00 | 65 | 1016.6 |
| 20260507081519 | 20 | 17 | 8.0 | 17.7 | 0.00 | 0.00 | 0.00 | 65 | 1016.7 |
| 20260507074607 | 21 | 235 | 4.8 | 12.9 | 0.00 | 0.00 | 0.00 | 65 | 1016.9 |
| 20260507073039 | 20 | 268 | 6.4 | 11.3 | 0.00 | 0.00 | 0.00 | 66 | 1016.7 |
| 20260507071534 | 20 | 313 | 6.4 | 11.3 | 0.00 | 0.00 | 0.00 | 67 | 1016.7 |
| 20260507070013 | 20 | 330 | 3.2 | 11.3 | 0.00 | 0.00 | 0.00 | 68 | 1016.9 |
| 20260507064509 | 20 | 279 | 1.6 | 8.0 | 0.00 | 0.00 | 0.00 | 70 | 1017.1 |
| 20260507063056 | 20 | 360 | 3.2 | 9.7 | 0.00 | 0.00 | 0.00 | 69 | 1017.1 |
| 20260507061548 | 19 | 67 | 1.6 | 8.0 | 0.00 | 0.00 | 0.00 | 72 | 1017.0 |
| 20260507060037 | 18 | 60 | 1.6 | 6.4 | 0.00 | 0.00 | 0.00 | 74 | 1017.2 |
| 20260507054520 | 17 | 66 | 1.6 | 8.0 | 0.00 | 0.00 | 0.00 | 78 | 1017.3 |
| 20260507053117 | 16 | 53 | 1.6 | 9.7 | 0.00 | 0.00 | 0.00 | 81 | 1017.2 |
| 20260507051600 | 15 | 355 | 1.6 | 6.4 | 0.00 | 0.00 | 0.00 | 83 | 1017.3 |
| 20260507050055 | 14 | 360 | 0.0 | 3.2 | 0.00 | 0.00 | 0.00 | 84 | 1017.2 |
| 20260507044537 | 13 | 360 | 0.0 | 0.0 | 0.00 | 0.00 | 0.00 | 84 | 1017.2 |
| 20260507043037 | 13 | 360 | 0.0 | 3.2 | 0.00 | 0.00 | 0.00 | 84 | 1017.1 |
| 20260507041516 | 12 | 360 | 1.6 | 4.8 | 0.00 | 0.00 | 0.00 | 83 | 1017.0 |
| 20260507040017 | 12 | 360 | 0.0 | 0.0 | 0.00 | 0.00 | 0.00 | 83 | 1016.8 |
| 20260507034554 | 12 | 360 | 0.0 | 3.2 | 0.00 | 0.00 | 0.00 | 82 | 1016.8 |
| 20260507033051 | 12 | 360 | 0.0 | 3.2 | 0.00 | 0.00 | 0.00 | 82 | 1016.7 |
| 20260507031531 | 12 | 360 | 0.0 | 0.0 | 0.00 | 0.00 | 0.00 | 82 | 1016.5 |
| 20260507030030 | 12 | 360 | 0.0 | 0.0 | 0.00 | 0.00 | 0.00 | 81 | 1016.4 |
| 20260507024509 | 12 | 360 | 0.0 | 0.0 | 0.00 | 0.00 | 0.00 | 81 | 1016.3 |
| 20260507023009 | 12 | 360 | 0.0 | 0.0 | 0.00 | 0.00 | 0.00 | 81 | 1016.0 |
| 20260507021550 | 12 | 360 | 0.0 | 0.0 | 0.00 | 0.00 | 0.00 | 80 | 1016.1 |
| 20260507020051 | 12 | 360 | 0.0 | 0.0 | 0.00 | 0.00 | 0.00 | 80 | 1016.1 |
| 20260507014529 | 12 | 360 | 0.0 | 0.0 | 0.00 | 0.00 | 0.00 | 80 | 1016.1 |
| 20260507013044 | 12 | 360 | 0.0 | 0.0 | 0.00 | 0.00 | 0.00 | 80 | 1016.0 |
| 20260507011510 | 13 | 360 | 0.0 | 0.0 | 0.00 | 0.00 | 0.00 | 79 | 1016.1 |
| 20260507010008 | 13 | 360 | 0.0 | 0.0 | 0.00 | 0.00 | 0.00 | 79 | 1016.0 |
| 20260507004550 | 13 | 360 | 0.0 | 0.0 | 0.00 | 0.00 | 0.00 | 79 | 1016.0 |
| 20260507003047 | 13 | 360 | 0.0 | 0.0 | 0.00 | 0.00 | 0.00 | 79 | 1016.0 |
| 20260507001532 | 13 | 360 | 0.0 | 1.6 | 0.00 | 0.00 | 0.00 | 79 | 1016.1 |
| 20260507000028 | 13 | 360 | 0.0 | 1.6 | 0.00 | 0.00 | 0.00 | 79 | 1016.1 |
| 20260506234515 | 13 | 360 | 0.0 | 0.0 | 0.00 | 0.00 | 0.00 | 78 | 1016.2 |
| 20260506233008 | 13 | 360 | 0.0 | 0.0 | 0.00 | 0.00 | 0.00 | 78 | 1016.2 |
| 20260506231549 | 14 | 360 | 0.0 | 0.0 | 0.00 | 0.00 | 0.00 | 77 | 1016.2 |
| 20260506230048 | 14 | 360 | 0.0 | 0.0 | 0.00 | 0.00 | 0.00 | 77 | 1016.2 |
| 20260506224528 | 14 | 360 | 0.0 | 0.0 | 0.00 | 0.00 | 0.00 | 77 | 1016.3 |
| 20260506223026 | 14 | 360 | 0.0 | 3.2 | 0.00 | 0.00 | 0.00 | 76 | 1016.4 |
| 20260506221508 | 15 | 360 | 1.6 | 3.2 | 0.00 | 0.00 | 0.00 | 75 | 1016.5 |
| 20260506220015 | 15 | 360 | 1.6 | 3.2 | 0.00 | 0.00 | 0.00 | 75 | 1016.5 |
| 20260506214550 | 15 | 360 | 0.0 | 3.2 | 0.00 | 0.00 | 0.00 | 75 | 1016.6 |
| 20260506213045 | 15 | 360 | 0.0 | 3.2 | 0.00 | 0.00 | 0.00 | 75 | 1016.5 |
| 20260506211529 | 15 | 360 | 0.0 | 4.8 | 0.00 | 0.00 | 0.00 | 75 | 1016.6 |
| 20260506210033 | 15 | 360 | 0.0 | 3.2 | 0.00 | 0.00 | 0.00 | 75 | 1016.5 |
| 20260506204507 | 16 | 360 | 1.6 | 6.4 | 0.00 | 0.00 | 0.00 | 74 | 1016.7 |
| 20260506203006 | 16 | 346 | 1.6 | 3.2 | 0.00 | 0.00 | 0.00 | 73 | 1016.7 |
| 20260506201548 | 16 | 346 | 0.0 | 3.2 | 0.00 | 0.00 | 0.00 | 73 | 1016.7 |
| 20260506200049 | 16 | 346 | 0.0 | 4.8 | 0.00 | 0.00 | 0.00 | 72 | 1016.7 |
| 20260506194530 | 16 | 346 | 1.6 | 4.8 | 0.00 | 0.00 | 0.00 | 72 | 1016.8 |
| 20260506193030 | 16 | 338 | 1.6 | 4.8 | 0.00 | 0.00 | 0.00 | 70 | 1016.7 |
| 20260506191512 | 16 | 338 | 1.6 | 4.8 | 0.00 | 0.00 | 0.00 | 69 | 1016.8 |
| 20260506190011 | 16 | 337 | 1.6 | 4.8 | 0.00 | 0.00 | 0.00 | 68 | 1016.8 |
| 20260506184552 | 17 | 299 | 0.0 | 0.0 | 0.00 | 0.00 | 0.00 | 68 | 1016.7 |
| 20260506183050 | 17 | 299 | 0.0 | 0.0 | 0.00 | 0.00 | 0.00 | 68 | 1016.5 |
| 20260506181534 | 17 | 299 | 0.0 | 1.6 | 0.00 | 0.00 | 0.00 | 67 | 1016.4 |
| 20260506180036 | 17 | 299 | 0.0 | 3.2 | 0.00 | 0.00 | 0.00 | 67 | 1016.3 |
| 20260506174514 | 17 | 304 | 0.0 | 3.2 | 0.00 | 0.00 | 0.00 | 66 | 1016.3 |
| 20260506173020 | 17 | 304 | 1.6 | 6.4 | 0.00 | 0.00 | 0.00 | 66 | 1016.1 |
| 20260506171603 | 17 | 306 | 1.6 | 6.4 | 0.00 | 0.00 | 0.00 | 65 | 1016.1 |
| 20260506164550 | 17 | 264 | 1.6 | 4.8 | 0.00 | 0.00 | 0.00 | 64 | 1015.7 |
| 20260506163040 | 18 | 189 | 1.6 | 6.4 | 0.00 | 0.00 | 0.00 | 64 | 1015.7 |
| 20260506161519 | 18 | 224 | 3.2 | 6.4 | 0.00 | 0.00 | 0.00 | 64 | 1015.5 |
| 20260506160019 | 18 | 323 | 1.6 | 8.0 | 0.00 | 0.00 | 0.00 | 64 | 1015.5 |
| 20260506154600 | 18 | 321 | 3.2 | 12.9 | 0.00 | 0.00 | 0.00 | 64 | 1015.5 |
| 20260506153102 | 18 | 149 | 3.2 | 9.7 | 0.00 | 0.00 | 0.00 | 63 | 1015.3 |
| 20260506151542 | 19 | 24 | 4.8 | 11.3 | 0.00 | 0.00 | 0.00 | 61 | 1015.3 |
| 20260506150042 | 19 | 19 | 1.6 | 9.7 | 0.00 | 0.00 | 0.00 | 61 | 1015.3 |
| 20260506144530 | 20 | 289 | 1.6 | 6.4 | 0.00 | 0.00 | 0.00 | 59 | 1015.2 |
| 20260506143032 | 20 | 47 | 3.2 | 11.3 | 0.00 | 0.00 | 0.00 | 60 | 1015.3 |
| 20260506141505 | 20 | 300 | 3.2 | 16.1 | 0.00 | 0.00 | 0.00 | 58 | 1015.2 |
| 20260506140005 | 20 | 309 | 3.2 | 9.7 | 0.00 | 0.00 | 0.00 | 58 | 1015.2 |
| 20260506134547 | 20 | 275 | 3.2 | 9.7 | 0.00 | 0.00 | 0.00 | 58 | 1015.3 |
| 20260506133047 | 20 | 254 | 1.6 | 9.7 | 0.00 | 0.00 | 0.00 | 57 | 1015.3 |
| 20260506131534 | 20 | 109 | 4.8 | 12.9 | 0.00 | 0.00 | 0.00 | 58 | 1015.5 |
| 20260506130029 | 20 | 253 | 4.8 | 11.3 | 0.00 | 0.00 | 0.00 | 59 | 1015.5 |
| 20260506124510 | 20 | 300 | 4.8 | 12.9 | 0.00 | 0.00 | 0.00 | 59 | 1015.6 |
| 20260506123011 | 20 | 294 | 4.8 | 12.9 | 0.00 | 0.00 | 0.00 | 59 | 1015.8 |
| 20260506121601 | 20 | 21 | 4.8 | 14.5 | 0.00 | 0.00 | 0.00 | 59 | 1015.7 |
| 20260506120116 | 20 | 130 | 4.8 | 11.3 | 0.00 | 0.00 | 0.00 | 58 | 1015.8 |
| 20260506114533 | 21 | 286 | 4.8 | 11.3 | 0.00 | 0.00 | 0.00 | 57 | 1015.9 |
| 20260506113035 | 21 | 350 | 4.8 | 14.5 | 0.00 | 0.00 | 0.00 | 56 | 1016.0 |
| 20260506111513 | 21 | 279 | 4.8 | 12.9 | 0.00 | 0.00 | 0.00 | 58 | 1016.0 |
| 20260506110011 | 20 | 268 | 3.2 | 9.7 | 0.00 | 0.00 | 0.00 | 58 | 1016.0 |